[[{"header":{"parameterUnit":"m.s-1","parameterCategory":1,"la1":30.2991,"la2":30.254,"lo1":-89.0895,"lo2":-89.0444,"dy":0.0017,"dx":0.0017,"nx":28,"ny":28,"refTime":"2024-05-01T09:00:00:Z","depth":0,"parameterNumber":2,"parameterNumberName":"U-component_of_WINDS"},"data":[0,0,0,0,0,0,0,0,0,0,0,0,0,0,0,0,0,0,0,0,0,0,0,0,0,0,0,0,0,0,0,0,0,0,0,0,0,0,0,0,0,0,0,0,0,0,0,0,0,0,0,0,0,0,0,0,0,0,0.0668,0.0668,0,0.0648,0.0648,0.0648,0.0611,0.061,0.0609,0.0609,0.059,0.059,0.059,0,0,0,0,0,0,0,0,0,0,0,0,0,0.0676,0.0676,0.0668,0.0668,0.0668,0.0648,0.0648,0.0648,0.0611,0.061,0.0609,0.0608,0.059,0.059,0.059,0,0,0,0,0,0,0,0,0,0,0,0,0,0.0666,0.0676,0.0668,0.0647,0.0645,0.0649,0.0648,0.0648,0.0611,0.061,0.0609,0.0608,0.059,0.059,0.059,0.0614,0,0,0.0591,0.0591,0,0,0,0,0,0,0,0,0.0666,0.0666,0.065,0.0648,0.0646,0.0631,0.0644,0.0637,0.0612,0.0624,0.0609,0.0608,0.0605,0.0604,0.0602,0.0613,0.0612,0.0591,0.0591,0.0592,0.0592,0,0,0,0,0,0,0,0.0667,0.0666,0.066,0.065,0.0648,0.0639,0.0636,0.0642,0.0621,0.0623,0.062,0.0618,0.0603,0.0602,0.0602,0.0612,0.0591,0.0591,0.0592,0.0592,0.0642,0.0643,0,0,0,0,0,0,0.0671,0.0667,0.0661,0.066,0.0654,0.064,0.0637,0.0637,0.0621,0.0617,0.0619,0.0617,0.0602,0.0601,0.0601,0.0628,0.0592,0.0592,0.0592,0.064,0.0642,0.0643,0,0,0,0,0,0,0.0671,0.0671,0.0662,0.0663,0.0661,0.0641,0.0641,0.0637,0.0636,0.0618,0.0614,0.0622,0.0601,0.06,0.0611,0.0627,0.0592,0.0592,0.0639,0.0641,0.0642,0.0682,0,0,0,0,0,0,0.0671,0.0671,0.0679,0.0663,0.0661,0.0672,0.0642,0.0638,0.0636,0.0633,0.0619,0.0616,0.06,0.0611,0.0611,0.0626,0.0592,0.0638,0.064,0.0642,0.0679,0.0684,0.0689,0,0,0,0,0,0.0672,0.0691,0.068,0.0679,0.0671,0.0673,0.0672,0.0653,0.0638,0.0646,0.0635,0.0616,0.0625,0.0612,0.0612,0.0628,0.0637,0.0639,0.0642,0.0676,0.0683,0.0689,0,0,0,0,0,0,0.0709,0.0688,0.0676,0.069,0.0683,0.0666,0.0676,0.0661,0.0659,0.0655,0.0633,0.063,0.0644,0.0637,0.0623,0.065,0.0628,0.0631,0.0654,0.066,0.0666,0.0667,0.0593,0,0,0,0,0,0.0719,0.0722,0.0704,0.0718,0.0716,0.0697,0.0697,0.0683,0.0676,0.0673,0.0662,0.0656,0.0657,0.0658,0.0658,0.0677,0.0675,0.0688,0.0694,0.0698,0.0701,0.0711,0.0717,0.0652,0.0652,0.0652,0,0,0.074,0.0729,0.0732,0.0726,0.0719,0.0723,0.0695,0.07,0.0703,0.0674,0.0683,0.0675,0.0667,0.0682,0.0688,0.0676,0.0718,0.0701,0.0705,0.0705,0.0715,0.0721,0.0727,0.0654,0.0653,0.0653,0,0,0.078,0.0771,0.0783,0.0777,0.0767,0.0754,0.0757,0.0743,0.0736,0.0745,0.0723,0.0727,0.0729,0.0725,0.0722,0.0762,0.0745,0.0762,0.079,0.08,0.0805,0.081,0.0825,0.083,0.0765,0.0765,0.0765,0,0.0807,0.0812,0.0791,0.0798,0.0796,0.0769,0.0782,0.0777,0.0768,0.0767,0.0754,0.0758,0.075,0.0764,0.0774,0.0773,0.0776,0.0764,0.0806,0.0811,0.0815,0.0828,0.0834,0.0767,0.0767,0.0767,0.0767,0,0.0846,0.085,0.086,0.0852,0.0852,0.0861,0.0843,0.0845,0.0831,0.082,0.083,0.082,0.0818,0.082,0.0807,0.0833,0.0826,0.081,0.0788,0.0823,0.0836,0.0841,0.077,0.077,0.0769,0.0768,0,0,0.0909,0.0889,0.0894,0.089,0.0877,0.088,0.0889,0.0887,0.0889,0.0884,0.0892,0.0895,0.088,0.0878,0.0864,0.0873,0.0906,0.0856,0.0855,0.0866,0.0934,0.0947,0.0954,0.0894,0.0895,0.0896,0.0935,0,0.0946,0.096,0.0942,0.0959,0.0963,0.0938,0.0946,0.094,0.093,0.0932,0.0921,0.0924,0.0904,0.0903,0.0911,0.09,0.0919,0.0897,0.0902,0.0902,0.0905,0.096,0.0973,0.1011,0.094,0.0941,0.0942,0,0.0992,0.0989,0.1007,0.0994,0.0995,0.1002,0.0999,0.1001,0.0994,0.0986,0.0984,0.0968,0.0976,0.0954,0.0966,0.0951,0.0952,0.0948,0.0949,0.0949,0.0924,0.0962,0.1022,0.1028,0.0949,0.0948,0.0948,0,0.1037,0.1037,0.1048,0.1046,0.1031,0.1037,0.1031,0.1022,0.1023,0.102,0.102,0.1019,0.1018,0.1018,0.1002,0.0987,0.1017,0.0993,0.1011,0.1012,0.1019,0.1019,0.108,0.1019,0.1019,0.1018,0.1018,0,0.1081,0.1093,0.1068,0.1075,0.1089,0.1068,0.1082,0.1074,0.1067,0.1072,0.105,0.1056,0.1034,0.1038,0.1025,0.1038,0.1038,0.1032,0.1029,0.1034,0.1035,0.1035,0.1032,0.102,0.102,0.1019,0.1019,0,0.1133,0.1117,0.1128,0.1113,0.1109,0.112,0.1108,0.1114,0.1103,0.111,0.1111,0.1094,0.1097,0.1081,0.1081,0.1073,0.1092,0.1084,0.1094,0.1092,0.1111,0.111,0.1176,0.1184,0.1116,0.1117,0.1118,0,0.1163,0.1172,0.1158,0.116,0.1155,0.1158,0.1158,0.1139,0.114,0.1133,0.114,0.1142,0.1142,0.1148,0.1136,0.1137,0.1129,0.1152,0.1129,0.1135,0.113,0.113,0.1131,0.1157,0.1158,0.1158,0.1159,0,0.1217,0.1209,0.1209,0.1208,0.1208,0.1206,0.1202,0.1206,0.1184,0.1187,0.119,0.119,0.1191,0.1193,0.1191,0.1185,0.1169,0.1166,0.1171,0.1177,0.1183,0.118,0.1108,0.1165,0.1164,0.1164,0.1164,0.1163,0.1259,0.1266,0.1258,0.126,0.1255,0.1252,0.1258,0.1247,0.1249,0.1248,0.1237,0.1242,0.1235,0.1231,0.1227,0.1232,0.1221,0.1227,0.1229,0.1231,0.1235,0.1182,0.1231,0.1231,0.1231,0.1231,0.1231,0,0.1313,0.1306,0.1308,0.1304,0.1306,0.129,0.1285,0.1288,0.1293,0.1288,0.1288,0.1292,0.1294,0.1283,0.1283,0.1289,0.1282,0.129,0.129,0.1289,0.1244,0.124,0.1296,0.1296,0.1296,0.1296,0.1296,0.1296,0.1341,0.1352,0.1343,0.1353,0.1346,0.1351,0.135,0.1348,0.1344,0.1349,0.135,0.1343,0.1335,0.1335,0.1337,0.1334,0.1335,0.1346,0.134,0.1298,0.1292,0.1286,0.1283,0.1347,0.1347,0.1385,0.1386,0.1386]},{"header":{"parameterUnit":"m.s-1","parameterCategory":1,"la1":30.2991,"la2":30.254,"lo1":-89.0895,"lo2":-89.0444,"dy":0.0017,"dx":0.0017,"nx":28,"ny":28,"refTime":"2024-05-01T09:00:00:Z","depth":0,"parameterNumber":3,"parameterNumberName":"V-component_of_WINDS"},"data":[0,0,0,0,0,0,0,0,0,0,0,0,0,0,0,0,0,0,0,0,0,0,0,0,0,0,0,0,0,0,0,0,0,0,0,0,0,0,0,0,0,0,0,0,0,0,0,0,0,0,0,0,0,0,0,0,0,0,0.058,0.0582,0,0.0758,0.076,0.0762,0.0805,0.0804,0.0802,0.0801,0.0983,0.0989,0.0995,0,0,0,0,0,0,0,0,0,0,0,0,0,0.0276,0.0281,0.058,0.0582,0.0584,0.0758,0.076,0.0763,0.0805,0.0804,0.0802,0.0801,0.0981,0.0988,0.0995,0,0,0,0,0,0,0,0,0,0,0,0,0,0.0426,0.0283,0.0579,0.0626,0.0632,0.0757,0.076,0.0763,0.0805,0.0804,0.0802,0.08,0.0979,0.0987,0.0996,0.1087,0,0,0.1023,0.1027,0,0,0,0,0,0,0,0,0.0417,0.0437,0.0617,0.0623,0.063,0.0757,0.072,0.0872,0.0806,0.074,0.0801,0.0799,0.0909,0.0924,0.0961,0.1095,0.1103,0.1024,0.103,0.1033,0.1036,0,0,0,0,0,0,0,0.0407,0.043,0.065,0.062,0.0628,0.0638,0.0658,0.0749,0.0832,0.0745,0.0749,0.0769,0.0913,0.0952,0.0966,0.1106,0.1024,0.1032,0.1037,0.1041,0.1323,0.1325,0,0,0,0,0,0,0.0388,0.0421,0.0645,0.0656,0.0517,0.0645,0.0667,0.0718,0.0831,0.0847,0.0771,0.0771,0.0938,0.0955,0.0972,0.1086,0.1033,0.1042,0.1047,0.1321,0.1324,0.1326,0,0,0,0,0,0,0.0382,0.0408,0.0637,0.0539,0.0569,0.0652,0.071,0.0723,0.0763,0.0851,0.0866,0.0796,0.0937,0.096,0.1058,0.1093,0.1046,0.1054,0.1319,0.1322,0.1325,0.1314,0,0,0,0,0,0,0.0373,0.0405,0.0441,0.054,0.0574,0.0721,0.0712,0.0728,0.0778,0.078,0.0879,0.0893,0.0938,0.1045,0.1067,0.1105,0.1061,0.1316,0.132,0.1324,0.1312,0.1317,0.1321,0,0,0,0,0,0.0362,0.0431,0.0442,0.0469,0.062,0.0722,0.0742,0.0792,0.0781,0.0817,0.0873,0.089,0.1085,0.1054,0.108,0.1121,0.1314,0.1319,0.1324,0.131,0.1316,0.1321,0,0,0,0,0,0,0.0334,0.0444,0.0459,0.0562,0.0632,0.0729,0.0777,0.0797,0.0872,0.0871,0.0929,0.0951,0.1046,0.1093,0.1056,0.1214,0.1199,0.1209,0.118,0.1187,0.1191,0.1178,0.1068,0,0,0,0,0,0.0339,0.0413,0.0506,0.0588,0.0622,0.0693,0.074,0.0772,0.0848,0.0878,0.0941,0.1014,0.1091,0.1141,0.1218,0.1319,0.1341,0.1359,0.1364,0.1367,0.1375,0.1432,0.1442,0.1342,0.1342,0.1342,0,0,0.0352,0.0421,0.0465,0.0584,0.0642,0.0717,0.0718,0.0798,0.0854,0.089,0.0987,0.1036,0.112,0.122,0.1268,0.1263,0.1408,0.1373,0.1375,0.1382,0.1438,0.1448,0.1456,0.1345,0.1345,0.1344,0,0,0.0413,0.0473,0.0548,0.0607,0.0696,0.0743,0.076,0.0855,0.0889,0.0987,0.1016,0.1083,0.1216,0.1275,0.1322,0.1406,0.1424,0.1429,0.1453,0.1508,0.1516,0.1523,0.1553,0.1563,0.1437,0.1437,0.1437,0,0.0418,0.0533,0.0584,0.0663,0.0714,0.075,0.0826,0.0881,0.099,0.1024,0.1017,0.1184,0.1244,0.1358,0.1379,0.1415,0.1438,0.1418,0.151,0.1518,0.1526,0.1555,0.1566,0.1437,0.1437,0.1437,0.1437,0,0.0534,0.0613,0.0663,0.0767,0.0825,0.0901,0.0964,0.1016,0.1043,0.109,0.119,0.1262,0.1354,0.1383,0.1411,0.1502,0.1496,0.1499,0.1485,0.1534,0.1563,0.1575,0.1437,0.1437,0.1437,0.1437,0,0,0.0584,0.0716,0.0733,0.0781,0.0882,0.0944,0.1022,0.1112,0.1155,0.1229,0.1296,0.1407,0.141,0.1464,0.1498,0.1546,0.1608,0.1543,0.1546,0.1553,0.1713,0.1711,0.1723,0.162,0.1622,0.1624,0.1706,0,0.0658,0.08,0.0849,0.0966,0.1039,0.1074,0.1142,0.1211,0.1257,0.1326,0.1376,0.1455,0.1452,0.1485,0.1534,0.159,0.1641,0.1584,0.1683,0.1686,0.1662,0.1739,0.1737,0.1811,0.1718,0.172,0.1721,0,0.0765,0.084,0.0965,0.1056,0.1089,0.1149,0.1236,0.1301,0.1379,0.1409,0.1469,0.15,0.1582,0.1563,0.1678,0.1638,0.1681,0.1714,0.1718,0.173,0.1707,0.1753,0.1836,0.1847,0.1739,0.1738,0.1736,0,0.0789,0.0922,0.1014,0.1054,0.1162,0.1204,0.1251,0.1328,0.1379,0.1454,0.1488,0.1571,0.1617,0.1681,0.1733,0.1714,0.1843,0.1828,0.187,0.1869,0.1897,0.1895,0.1988,0.1923,0.1923,0.1922,0.1922,0,0.0868,0.0943,0.1026,0.1083,0.1168,0.1223,0.1305,0.1354,0.1422,0.1488,0.1523,0.1584,0.1649,0.1719,0.1759,0.1848,0.1869,0.1895,0.1905,0.1893,0.189,0.1923,0.1919,0.1925,0.1925,0.1924,0.1924,0,0.091,0.0969,0.1072,0.1166,0.1191,0.125,0.1331,0.1387,0.1434,0.1517,0.154,0.1614,0.1698,0.1756,0.1863,0.1891,0.1987,0.1996,0.1961,0.1966,0.2006,0.2002,0.2125,0.2144,0.2064,0.2065,0.2066,0,0.0957,0.1016,0.1117,0.1164,0.1211,0.1287,0.1339,0.1395,0.1448,0.1541,0.1586,0.1672,0.1744,0.1876,0.194,0.2022,0.2034,0.2071,0.2046,0.2032,0.2035,0.2031,0.2038,0.2075,0.2076,0.2076,0.2077,0,0.1035,0.1061,0.1135,0.122,0.1281,0.1351,0.142,0.1457,0.1524,0.1582,0.1669,0.1724,0.1834,0.192,0.2008,0.2056,0.2078,0.2084,0.2098,0.2087,0.2064,0.2077,0.1972,0.2081,0.2081,0.208,0.208,0.208,0.1082,0.1135,0.1215,0.1296,0.1355,0.1419,0.1476,0.153,0.1604,0.1698,0.1726,0.1816,0.1892,0.2013,0.2062,0.2133,0.213,0.2151,0.2156,0.2161,0.2161,0.2052,0.2149,0.2149,0.2149,0.2149,0.2149,0,0.1161,0.1214,0.1289,0.1385,0.1449,0.1464,0.1542,0.1594,0.1673,0.1743,0.1813,0.1912,0.1995,0.2064,0.215,0.2193,0.2205,0.2213,0.2211,0.2222,0.2158,0.2138,0.2202,0.2202,0.2202,0.2202,0.2202,0.2202,0.121,0.1303,0.1338,0.1459,0.1511,0.16,0.1643,0.1702,0.1758,0.1868,0.1937,0.1982,0.2051,0.2142,0.2218,0.2236,0.2266,0.2273,0.2293,0.2233,0.2227,0.2221,0.2202,0.2279,0.2279,0.2351,0.2352,0.2352]}]]